TimeMST,TemperatureF,Dew PointF,Humidity,Sea Level PressureIn,VisibilityMPH,Wind Direction,Wind SpeedMPH,Gust SpeedMPH,PrecipitationIn,Events,Conditions,WindDirDegrees,DateUTC
12:56 AM,30.9,21.0,67,29.85,10.0,West,18.4,-,N/A,,Clear,260,2013-01-07 07:56:00
1:56 AM,26.1,18.0,71,29.87,10.0,West,10.4,-,N/A,,Clear,270,2013-01-07 08:56:00
2:56 AM,24.1,16.0,71,29.87,10.0,WSW,10.4,-,N/A,,Clear,250,2013-01-07 09:56:00
3:56 AM,19.9,14.0,78,29.88,10.0,WSW,9.2,-,N/A,,Clear,250,2013-01-07 10:56:00
4:56 AM,19.9,12.9,74,29.88,10.0,SW,10.4,-,N/A,,Clear,230,2013-01-07 11:56:00
5:56 AM,25.0,16.0,69,29.88,10.0,West,13.8,-,N/A,,Partly Cloudy,260,2013-01-07 12:56:00
6:56 AM,19.9,12.9,74,29.91,10.0,WSW,12.7,-,N/A,,Clear,250,2013-01-07 13:56:00
8:56 AM,24.1,16.0,71,29.92,10.0,WSW,16.1,-,N/A,,Mostly Cloudy,250,2013-01-07 15:56:00
9:56 AM,28.0,19.0,69,29.91,10.0,WSW,15.0,-,N/A,,Overcast,240,2013-01-07 16:56:00
10:56 AM,28.9,21.0,72,29.91,10.0,WSW,13.8,-,N/A,,Scattered Clouds,250,2013-01-07 17:56:00
11:56 AM,28.9,21.9,75,29.89,10.0,West,9.2,-,N/A,,Clear,260,2013-01-07 18:56:00
12:56 PM,30.9,23.0,72,29.88,10.0,WSW,11.5,-,N/A,,Clear,250,2013-01-07 19:56:00
1:56 PM,30.9,21.9,69,29.89,10.0,WSW,10.4,-,N/A,,Clear,240,2013-01-07 20:56:00
2:56 PM,28.9,21.0,72,29.89,10.0,WSW,12.7,-,N/A,,Clear,250,2013-01-07 21:56:00
5:56 PM,17.1,12.0,81,29.88,10.0,SSW,6.9,-,N/A,,Clear,200,2013-01-08 00:56:00
6:56 PM,16.0,12.9,88,29.89,10.0,South,8.1,-,N/A,,Clear,180,2013-01-08 01:56:00
7:56 PM,16.0,12.0,84,29.86,10.0,South,10.4,-,N/A,,Clear,190,2013-01-08 02:56:00
8:56 PM,14.0,10.9,88,29.83,10.0,South,9.2,-,N/A,,Clear,170,2013-01-08 03:56:00
9:56 PM,18.0,14.0,84,29.78,10.0,South,11.5,-,N/A,,Scattered Clouds,180,2013-01-08 04:56:00
10:56 PM,23.0,18.0,81,29.75,10.0,South,9.2,-,N/A,,Overcast,170,2013-01-08 05:56:00
11:56 PM,28.0,21.0,75,29.71,10.0,South,12.7,-,N/A,,Overcast,180,2013-01-08 06:56:00